Faith, SD

8:39 AM MDT on October 23, 2017 (GMT -0600)
Faith

Weather History for KD07 - November, 2012

Change the Weather History Date:

Sunday, November 4, 2012

  Actual Average Record
Temperature  
Mean Temperature 41 °F 39 °F  
Max Temperature 52 °F 50 °F 73 °F (1999)
Min Temperature 29 °F 28 °F 9 °F (2003)
Degree Days  
Heating Degree Days 24 26  
Month to date heating degree days 108 102  
Since 1 July heating degree days 842 901  
Moisture  
Dew Point 34 °F    
Average Humidity 86    
Maximum Humidity 100    
Minimum Humidity 71    
Precipitation  
Precipitation 0.05 in 0.04 in 0.08 in (2015)
Month to date precipitation 0.07 0.16  
Year to date precipitation 12.39 16.89  
Sea Level Pressure  
Sea Level Pressure 30.18 in    
Wind  
Wind Speed 10 mph (SE)    
Max Wind Speed 20 mph    
Max Gust Speed 23 mph    
T = Trace of Precipitation, MM = Missing Value Source: NWS Daily Summary

Daily Weather History Graph

Daily Weather History Graph

Search for Another Location

Airport or City:

Trip Planner

Search our weather history database for the weather conditions in past years. The results will help you decide how hot, cold, wet, or windy it might be!

Date:

Astronomy

Nov. 04, 2012 Rise Set
Actual Time 6:31 AM MST 4:31 PM MST
Civil Twilight 6:00 AM MST 5:02 PM MST
Nautical Twilight 5:25 AM MST 5:37 PM MST
Astronomical Twilight 4:51 AM MST 6:11 PM MST
Moon 9:09 PM MST (11/4) 11:19 AM MST (11/4)
Length of Visible Light 11h 01m
Length of Day
9h 59m
Waning Gibbous, 71% of the Moon is Illuminated
Nov 4
Waning Gibbous
Nov 6
Last Quarter
Nov 13
New
Nov 20
First Quarter
Nov 28
Full

Hourly Weather History & Observations

Time (MST) Temp. Windchill Dew Point Humidity Pressure Visibility Wind Dir Wind Speed Gust Speed Precip Events Conditions
12:56 AM 30.0 °F 24.1 °F 28.9 °F 96% 30.21 in - ESE 5.8 mph - N/A   Unknown
1:56 AM 30.0 °F 23.2 °F 28.9 °F 96% 30.20 in - ESE 6.9 mph - N/A   Unknown
1:56 AM 30.0 °F 22.4 °F 28.0 °F 92% 30.18 in - SE 8.1 mph - N/A   Unknown
2:56 AM 30.0 °F 21.7 °F 28.0 °F 92% 30.16 in - SE 9.2 mph - N/A   Unknown
3:56 AM 28.9 °F 20.4 °F 28.0 °F 96% 30.16 in - SSE 9.2 mph - N/A   Unknown
4:56 AM 30.0 °F 20.5 °F 27.0 °F 88% 30.17 in - SSE 11.5 mph - N/A   Unknown
5:56 AM 30.0 °F 20.0 °F 27.0 °F 88% 30.15 in - SSE 12.7 mph - N/A   Unknown
6:56 AM 30.0 °F 21.7 °F 27.0 °F 88% 30.18 in - SSE 9.2 mph - N/A   Unknown
7:56 AM 30.9 °F 21.7 °F 28.9 °F 92% 30.18 in - SE 11.5 mph - N/A   Unknown
8:56 AM 30.9 °F 21.7 °F 30.0 °F 96% 30.18 in - SSE 11.5 mph - 0.01 in   Unknown
9:56 AM 32.0 °F 22.5 °F 30.0 °F 92% 30.18 in - South 12.7 mph - N/A   Unknown
10:56 AM 33.1 °F 23.9 °F 32.0 °F 96% 30.16 in - SSW 12.7 mph - 0.02 in   Unknown
11:56 AM 35.1 °F 28.6 °F 34.0 °F 96% 30.15 in - SW 8.1 mph - N/A   Unknown
12:56 PM 39.9 °F 33.4 °F 37.9 °F 93% 30.12 in - SSW 10.4 mph - 0.02 in   Unknown
1:56 PM 46.0 °F 41.9 °F 41.0 °F 83% 30.10 in - SW 8.1 mph - N/A   Unknown
2:56 PM 48.0 °F - 42.1 °F 80% 30.09 in - South 4.6 mph - N/A   Unknown
3:56 PM 51.1 °F - 42.1 °F 71% 30.11 in - North 5.8 mph - N/A   Unknown
4:56 PM 44.1 °F 41.5 °F 41.0 °F 89% 30.15 in - NE 4.6 mph - N/A   Unknown
5:56 PM 41.0 °F 35.2 °F 39.0 °F 93% 30.19 in - NNE 9.2 mph - N/A   Unknown
6:56 PM 37.0 °F 30.4 °F 35.1 °F 93% 30.23 in - North 9.2 mph - N/A   Unknown
7:56 PM 41.0 °F 35.8 °F 39.0 °F 93% 30.25 in - NNE 8.1 mph - N/A   Unknown
8:56 PM 41.0 °F 33.1 °F 37.0 °F 86% 30.27 in - NNW 15.0 mph 21.9 mph N/A   Unknown
9:56 PM 39.9 °F 31.1 °F 37.0 °F 89% 30.27 in - North 17.3 mph - N/A   Unknown
10:56 PM 39.0 °F 31.4 °F 36.0 °F 89% 30.28 in - North 12.7 mph - N/A   Unknown